Wind_Speed
80 74 79 77 89 92 75 59 79 79 76 78 81 73 78 70 62 61 61 58 51 48 48 48 48 47 48 47 41 39 40 45 45 39 38 39 42 42 42 45 43 47 48 45
80 86 88 79 70 78 80 86 89 79 80 75 70 76 74 74 70 67 57 55 47 42 46 50 51 45 46 48 46 41 39 47 50 48 43 39 39 39 40 44 50 54 54 49
74 79 79 88 92 78 72 73 79 79 74 71 69 70 63 59 58 60 57 53 53 49 50 47 50 50 45 45 48 48 46 48 49 52 49 50 48 47 47 51 56 55 55 52
64 69 67 75 72 64 76 69 77 85 73 80 74 70 60 60 59 59 56 56 55 54 54 49 50 50 44 44 47 52 52 53 47 50 54 55 57 54 56 57 55 60 54 57
73 72 82 77 69 71 72 79 65 74 80 84 77 72 69 66 63 61 57 57 57 55 55 59 50 47 48 53 46 43 49 51 49 50 50 50 59 58 66 63 61 63 59 62
88 87 92 93 86 93 92 87 81 67 69 58 70 73 69 69 66 67 66 62 62 61 54 55 52 53 55 57 57 57 55 57 56 58 58 57 60 55 64 65 63 58 61 55
84 89 88 86 83 85 88 87 77 74 69 65 60 59 64 67 68 62 64 67 62 57 57 55 58 60 62 62 58 62 61 62 69 70 65 70 60 57 60 62 55 52 53 51
82 87 85 84 84 77 74 77 76 78 75 78 75 71 65 64 63 67 69 65 60 61 64 62 64 66 67 66 65 66 71 69 68 65 67 73 68 68 61 61 61 53 54 51
77 79 80 78 77 77 79 81 78 78 77 76 73 73 68 64 64 67 58 58 60 64 70 72 73 76 77 74 68 64 60 54 55 60 61 68 67 59 55 61 59 52 53 54
79 84 83 82 80 78 79 81 79 77 78 75 73 71 68 69 69 73 75 73 72 75 74 76 79 80 80 79 79 71 67 62 61 57 61 63 54 55 58 59 55 57 57 58
81 84 86 89 89 87 87 84 79 79 80 80 79 78 76 76 81 86 83 76 78 81 81 84 85 82 81 75 76 77 69 65 67 62 58 61 55 57 61 55 60 61 57 60
83 85 89 90 91 94 94 91 87 84 84 82 83 82 85 87 88 82 88 86 83 82 84 87 87 83 81 79 74 71 71 67 64 65 66 64 63 61 65 65 66 62 58 59
73 86 89 91 92 97 97 96 95 92 91 88 89 86 89 88 84 89 84 85 81 88 88 81 77 77 77 76 76 72 71 70 71 70 68 67 66 64 65 64 61 59 59 58
45 69 86 82 82 84 90 100 100 98 99 101 94 94 93 93 95 92 92 89 86 90 82 79 80 78 79 80 79 76 73 72 73 75 72 72 68 69 68 67 63 62 60 60
28 38 52 64 65 64 65 68 72 85 91 102 104 102 96 97 98 96 92 88 88 87 84 81 80 81 79 78 78 75 69 69 70 72 71 73 72 69 68 66 64 63 65 65
20 20 27 36 43 49 52 52 57 53 54 63 78 89 96 100 99 96 87 85 87 87 85 85 84 81 80 80 79 74 71 72 70 69 70 70 70 70 68 68 68 67 67 63
21 20 28 36 42 47 48 49 38 36 41 43 44 52 68 86 93 97 98 91 80 80 81 84 83 86 85 82 82 74 76 78 76 74 74 73 71 73 73 71 71 69 68 68
18 20 24 28 34 39 40 37 33 34 33 32 37 41 47 56 64 75 85 89 91 88 80 72 70 72 77 80 83 80 79 80 78 76 72 74 74 72 71 72 73 72 71 69
29 22 22 25 28 30 32 30 23 26 28 28 27 21 23 34 45 57 61 66 65 68 75 77 74 76 81 80 78 79 79 75 73 71 73 73 71 69 67 69 70 68 69 73
30 30 31 31 30 27 29 29 26 32 30 26 11 12 14 21 32 35 37 38 37 43 46 49 54 60 63 65 64 69 75 79 73 67 68 69 69 67 68 68 70 70 72 70
33 32 28 24 26 30 28 27 30 30 29 18 17 13 9 10 12 21 33 35 34 36 38 43 47 49 45 46 48 49 52 55 59 63 69 76 77 69 71 77 70 66 58 53
23 27 24 24 26 23 29 28 26 27 29 17 15 17 19 13 15 19 21 26 29 32 33 38 40 30 35 42 43 44 46 48 50 52 54 55 55 55 55 53 51 50 50 47
22 19 25 22 28 26 26 20 18 18 17 17 8 16 12 10 16 24 26 30 33 34 37 38 34 40 38 37 39 38 39 38 38 39 41 42 40 40 39 41 40 39 39 39
16 17 16 18 25 24 17 13 17 14 19 21 20 17 19 24 22 21 23 27 30 33 36 29 26 27 24 24 28 29 30 28 25 25 25 27 30 29 29 31 34 36 37 36
14 12 13 18 18 21 21 19 18 19 20 21 23 25 25 25 25 24 25 29 32 26 23 19 15 17 21 22 21 23 25 24 25 25 23 21 23 27 30 31 30 30 29 29
12 12 14 15 16 18 17 18 18 17 20 22 21 20 20 22 25 24 23 24 20 20 21 19 19 18 13 11 15 17 18 17 18 19 19 20 20 21 23 24 25 26 26 26
9 10 12 11 12 12 14 12 14 18 21 23 24 21 20 20 19 20 20 16 16 16 13 11 10 11 9 9 9 10 11 11 11 12 13 15 18 20 20 20 20 21 23 26
Wind_Direction
223 223 235 230 232 231 230 231 242 244 237 243 253 253 255 261 263 264 261 264 261 258 261 262 263 271 271 266 266 263 268 271 268 269 261 259 264 266 266 267 273 273 273 288
235 232 230 231 221 227 230 235 241 241 242 245 245 253 255 258 260 256 257 261 255 258 260 261 264 273 270 264 261 259 264 263 268 266 263 263 261 264 266 266 267 269 274 289
223 223 224 226 227 222 225 226 233 235 236 233 234 252 250 251 247 252 253 252 256 257 254 259 265 275 269 265 263 264 262 260 259 265 271 266 263 261 260 258 262 268 272 282
217 216 213 217 221 228 225 229 225 221 233 234 234 238 246 251 246 245 249 250 256 263 266 267 264 281 266 272 264 258 255 257 262 260 265 268 268 267 267 264 266 267 279 282
232 231 241 242 229 229 237 249 249 237 232 229 242 235 242 246 249 250 247 254 260 261 266 268 271 270 267 273 263 252 248 253 260 263 269 274 266 266 266 268 275 282 285 282
249 249 250 254 256 254 259 254 257 256 242 238 233 236 235 242 252 249 249 255 260 260 268 267 275 266 267 269 266 258 260 254 259 264 269 276 270 268 268 271 278 283 280 287
246 250 252 256 255 257 261 265 264 258 252 249 244 242 243 245 246 249 254 256 254 263 269 269 270 269 268 268 268 264 262 263 262 267 268 269 274 272 270 272 276 278 282 281
243 244 248 250 249 250 246 252 253 258 255 259 257 256 257 255 259 256 254 256 258 262 264 266 267 268 270 269 269 273 269 266 265 267 267 270 265 270 274 273 270 274 277 279
243 243 243 244 243 242 236 245 246 243 251 254 260 260 258 252 257 245 250 256 256 262 264 264 261 266 272 270 272 272 264 260 267 268 267 267 271 271 269 270 272 273 279 277
243 243 241 241 240 237 236 239 242 242 243 245 245 243 247 246 248 250 254 254 254 256 259 258 261 263 264 263 266 266 266 265 265 270 269 273 275 271 269 269 283 279 277 271
232 232 235 237 237 238 235 236 238 238 239 237 238 237 239 243 240 244 251 248 246 251 254 254 255 255 259 261 262 264 263 263 263 264 266 266 272 272 272 274 276 278 278 273
232 230 228 230 232 235 235 235 234 236 235 236 238 239 236 238 241 241 241 244 247 252 253 252 254 255 257 257 256 255 257 261 266 266 270 272 273 273 275 275 278 280 279 279
230 226 225 226 228 227 230 232 230 230 232 235 233 234 237 236 240 239 243 243 246 251 249 251 250 249 250 252 254 255 257 260 262 266 267 272 274 274 276 277 275 276 279 281
243 230 227 228 229 228 230 228 226 226 227 230 233 233 234 236 237 242 244 243 244 245 248 251 252 252 253 255 257 259 258 259 262 266 268 271 273 272 273 274 275 279 282 281
252 234 225 229 236 233 234 236 238 235 233 235 232 229 234 234 235 237 239 243 244 245 246 248 251 254 256 258 259 256 258 263 266 271 270 269 271 275 278 279 280 281 282 283
239 223 221 217 220 225 228 233 240 241 248 252 250 238 235 233 235 235 240 245 245 246 247 249 251 254 256 257 259 261 264 266 267 268 269 272 272 273 276 279 280 282 282 279
212 203 207 209 213 216 218 225 235 239 242 246 252 257 253 247 243 238 237 239 243 247 249 250 253 254 256 256 259 262 265 265 265 265 266 269 273 274 276 279 281 277 274 271
193 192 195 201 206 210 217 227 226 228 236 245 250 255 257 260 261 258 251 253 252 250 252 253 255 259 258 259 260 259 262 265 268 270 271 270 272 275 277 278 279 275 268 270
175 170 172 178 188 190 196 214 213 239 231 256 268 259 242 244 251 255 257 260 261 262 263 264 263 260 259 261 263 262 262 264 266 267 267 271 272 274 277 278 273 265 274 279
185 169 176 179 185 192 197 194 219 221 238 256 204 215 219 226 228 229 237 240 244 252 252 254 253 259 264 270 270 268 266 266 264 265 269 273 274 274 272 267 266 274 277 274
169 175 179 180 172 173 189 204 217 228 245 219 211 210 183 174 207 238 235 234 242 248 254 260 262 262 269 267 266 266 265 266 267 266 269 272 274 271 267 264 270 269 266 268
158 168 169 173 179 182 201 215 232 218 220 226 240 214 221 231 238 255 252 254 256 261 269 270 273 276 271 274 274 271 266 262 261 260 259 260 259 258 258 257 260 263 266 269
135 154 168 184 186 207 219 217 221 227 240 225 209 218 228 233 232 248 246 249 259 267 271 276 281 283 278 273 268 266 265 264 261 261 261 261 262 258 255 256 260 264 267 270
162 178 196 198 203 201 196 212 223 228 227 239 256 264 253 251 257 253 256 262 266 271 279 286 273 272 269 275 268 258 254 253 248 247 247 248 250 251 256 261 263 266 268 269
160 177 190 199 203 213 218 223 245 241 238 243 249 249 250 247 243 256 267 273 277 285 290 278 274 264 270 274 262 256 259 258 251 241 241 253 260 259 259 261 262 265 270 274
176 174 189 200 214 227 230 232 232 232 235 240 234 231 237 240 251 261 271 278 289 284 282 282 274 269 255 255 244 238 237 235 239 244 249 251 255 261 265 267 272 276 279 280
172 183 179 185 199 212 212 203 213 222 227 230 236 241 240 249 255 264 265 260 260 272 263 257 259 255 260 263 257 247 242 245 247 252 259 266 270 274 278 280 280 279 278 279
Height
5587 5595 5606 5615 5624 5633 5637 5644 5641 5652 5663 5658 5666 5673 5681 5689 5693 5699 5702 5706 5712 5714 5721 5724 5726 5725 5726 5728 5733 5734 5733 5730 5729 5735 5736 5737 5738 5738 5738 5737 5738 5733 5731 5719
5572 5582 5593 5605 5612 5614 5622 5623 5628 5634 5639 5644 5651 5660 5665 5674 5679 5685 5689 5694 5699 5706 5707 5706 5709 5718 5717 5717 5719 5722 5725 5721 5717 5718 5725 5729 5729 5729 5728 5727 5723 5718 5720 5716
5556 5565 5575 5588 5596 5604 5609 5608 5612 5617 5619 5631 5640 5645 5650 5655 5663 5669 5673 5682 5686 5688 5691 5697 5697 5701 5706 5708 5710 5712 5710 5710 5710 5710 5712 5714 5716 5718 5716 5712 5708 5711 5704 5709
5545 5552 5557 5569 5577 5589 5590 5590 5593 5599 5604 5615 5628 5633 5639 5644 5647 5654 5658 5666 5673 5678 5681 5688 5688 5689 5692 5696 5697 5696 5697 5695 5699 5701 5700 5699 5700 5703 5699 5698 5700 5696 5703 5698
5530 5536 5530 5552 5562 5566 5567 5571 5580 5587 5592 5603 5608 5615 5628 5633 5637 5640 5646 5654 5662 5665 5668 5674 5677 5678 5677 5680 5683 5683 5684 5684 5684 5684 5687 5687 5686 5688 5681 5682 5684 5682 5686 5681
5512 5520 5527 5533 5540 5542 5542 5554 5564 5570 5578 5585 5591 5602 5620 5622 5625 5628 5635 5640 5645 5648 5659 5661 5660 5661 5662 5664 5667 5669 5671 5671 5670 5671 5673 5671 5669 5674 5670 5672 5672 5673 5666 5671
5495 5503 5509 5514 5522 5524 5527 5534 5544 5553 5561 5568 5577 5594 5604 5607 5608 5619 5623 5625 5629 5643 5642 5640 5640 5642 5645 5648 5652 5654 5656 5657 5656 5656 5654 5648 5660 5661 5657 5655 5661 5658 5652 5655
5472 5482 5489 5497 5505 5508 5512 5520 5525 5530 5541 5553 5564 5576 5586 5594 5594 5600 5604 5608 5617 5621 5624 5624 5622 5623 5625 5630 5636 5637 5640 5641 5637 5635 5634 5635 5644 5642 5647 5641 5646 5646 5640 5641
5451 5460 5468 5476 5483 5490 5493 5500 5509 5518 5525 5531 5545 5553 5564 5572 5579 5584 5587 5595 5602 5605 5605 5605 5602 5604 5609 5611 5615 5624 5623 5625 5622 5620 5615 5616 5632 5629 5628 5623 5628 5635 5629 5623
5428 5437 5446 5454 5463 5468 5473 5479 5493 5501 5507 5517 5526 5535 5544 5553 5561 5566 5573 5584 5588 5591 5590 5588 5586 5587 5591 5593 5601 5606 5606 5609 5607 5608 5600 5601 5617 5613 5610 5607 5622 5616 5612 5608
5398 5410 5422 5432 5440 5447 5454 5467 5475 5480 5488 5499 5507 5516 5525 5535 5544 5548 5552 5563 5563 5570 5570 5570 5569 5570 5572 5576 5583 5588 5588 5590 5591 5591 5588 5587 5604 5600 5597 5600 5594 5596 5596 5593
5371 5381 5391 5404 5414 5422 5430 5441 5453 5461 5465 5476 5484 5495 5507 5515 5523 5529 5532 5536 5545 5551 5550 5548 5552 5553 5556 5561 5563 5569 5568 5574 5576 5575 5573 5578 5580 5580 5577 5579 5579 5578 5577 5576
5340 5350 5361 5373 5384 5393 5402 5414 5428 5435 5443 5451 5461 5478 5485 5492 5501 5506 5512 5517 5521 5528 5531 5531 5533 5531 5537 5538 5542 5549 5553 5555 5553 5555 5563 5564 5564 5562 5560 5560 5561 5560 5559 5559
5318 5326 5338 5348 5359 5369 5376 5383 5402 5412 5420 5424 5438 5452 5459 5471 5478 5484 5491 5499 5502 5509 5512 5510 5512 5514 5517 5518 5522 5527 5538 5539 5540 5537 5545 5547 5549 5546 5543 5541 5544 5544 5542 5540
5307 5312 5321 5334 5346 5356 5363 5369 5381 5390 5398 5397 5411 5422 5435 5447 5456 5464 5469 5475 5480 5485 5489 5489 5492 5494 5499 5497 5500 5507 5520 5522 5519 5520 5523 5522 5530 5528 5526 5526 5525 5525 5523 5521
5304 5308 5316 5327 5337 5347 5353 5359 5367 5380 5383 5387 5390 5401 5414 5420 5431 5441 5448 5454 5456 5465 5469 5469 5471 5475 5479 5478 5479 5497 5502 5500 5500 5500 5502 5504 5511 5512 5509 5508 5509 5507 5507 5505
5301 5308 5315 5323 5332 5337 5343 5350 5369 5372 5374 5377 5379 5385 5392 5397 5407 5419 5427 5433 5438 5444 5447 5448 5453 5457 5457 5455 5460 5493 5485 5481 5481 5480 5481 5485 5491 5491 5493 5491 5492 5490 5489 5487
5300 5307 5314 5321 5327 5334 5343 5351 5359 5360 5363 5365 5366 5376 5387 5389 5396 5403 5409 5414 5417 5422 5428 5431 5436 5438 5435 5432 5455 5469 5464 5461 5461 5463 5461 5463 5471 5472 5473 5475 5473 5471 5468 5466
5300 5306 5312 5318 5324 5333 5341 5348 5352 5356 5359 5360 5365 5371 5376 5379 5386 5392 5396 5398 5402 5404 5408 5412 5416 5415 5415 5434 5437 5444 5443 5438 5443 5445 5445 5449 5452 5455 5457 5457 5457 5454 5450 5448
5299 5308 5314 5319 5326 5334 5338 5344 5348 5351 5353 5359 5363 5365 5367 5370 5376 5380 5385 5388 5391 5392 5398 5398 5396 5398 5411 5420 5417 5416 5416 5421 5421 5427 5433 5432 5430 5434 5437 5439 5439 5436 5433 5432
5303 5310 5316 5322 5326 5332 5337 5341 5344 5347 5353 5357 5359 5363 5365 5367 5372 5376 5378 5379 5381 5383 5387 5386 5387 5395 5407 5398 5392 5391 5397 5402 5403 5406 5409 5410 5411 5415 5419 5421 5420 5418 5416 5415
5310 5315 5320 5325 5329 5334 5337 5340 5344 5348 5351 5353 5356 5360 5363 5366 5368 5371 5374 5375 5376 5378 5380 5380 5380 5391 5384 5379 5378 5377 5378 5384 5389 5389 5388 5388 5390 5394 5398 5401 5401 5400 5399 5398
5317 5320 5323 5327 5331 5333 5337 5340 5344 5348 5350 5353 5354 5357 5360 5362 5365 5368 5369 5369 5371 5371 5370 5371 5377 5370 5366 5365 5363 5364 5366 5369 5371 5370 5371 5374 5378 5382 5385 5385 5384 5384 5384 5382
5321 5324 5327 5329 5331 5334 5338 5341 5344 5346 5347 5348 5350 5352 5356 5358 5359 5361 5362 5362 5362 5362 5363 5364 5360 5358 5357 5356 5356 5358 5360 5361 5360 5361 5362 5365 5367 5368 5369 5371 5372 5372 5371 5371
5323 5326 5329 5331 5334 5337 5339 5341 5343 5344 5345 5346 5348 5350 5353 5354 5354 5356 5357 5356 5355 5355 5355 5353 5353 5353 5353 5352 5351 5352 5354 5355 5355 5356 5357 5359 5360 5360 5361 5361 5361 5361 5361 5360
5325 5327 5330 5331 5333 5334 5336 5337 5339 5340 5341 5342 5343 5345 5348 5349 5349 5351 5350 5349 5349 5349 5347 5348 5347 5347 5347 5346 5346 5347 5348 5349 5349 5350 5351 5352 5352 5353 5353 5353 5352 5351 5350 5349
5325 5327 5328 5329 5330 5330 5331 5333 5334 5335 5336 5338 5340 5342 5343 5344 5344 5344 5343 5343 5342 5342 5343 5344 5343 5343 5343 5342 5342 5343 5343 5343 5345 5345 5346 5346 5346 5345 5345 5344 5343 5342 5341 5340